Location: ??? ???
(30.1299°N, 31.3168°E)
Time: 01:03:54
(UTC+00:00)

Daily predictions for brighter satellites

Satellite Brightness Start Highest point End
(mag) Time Altitude Azimuth Time Altitude Azimuth Time Altitude Azimuth
ADEOS II 2.7 00:04:09 10° NNE 00:09:11 47° E 00:09:23 47° ESE
Cosmos 2263 Rocket 4.2 00:05:37 10° N 00:10:07 24° ENE 00:14:34 10° ESE
Envisat 3.9 00:07:49 10° NNE 00:12:32 39° E 00:13:00 38° ESE
Cosmos 2297 Rocket 3.0 00:11:22 10° NNW 00:15:01 38° NW 00:15:01 38° NW
CZ-2D R/B 2.0 00:14:48 10° NNE 00:19:52 84° N 00:19:52 84° N
Cosmos 1238 Rocket 4.5 00:15:58 10° N 00:20:56 41° E 00:22:35 32° ESE
Cosmos 1980 Rocket 2.4 00:23:29 55° WNW 00:23:29 55° WNW 00:28:47 10° N
OAO 2 Rocket 3.4 00:23:52 72° NNE 00:23:52 72° NNE 00:28:31 10° ENE
Cosmos 1745 Rocket 4.1 00:27:46 57° W 00:28:06 57° W 00:34:22 10° N
Meteor 2-6 Rocket 4.3 00:23:50 10° N 00:29:35 80° E 00:31:02 53° SSE
SeaSat 1 3.0 00:31:58 45° NW 00:31:58 45° NW 00:35:30 10° NNW
Cosmos 1697 Rocket 4.4 00:32:50 19° WNW 00:32:55 19° WNW 00:36:52 10° NNW
Nadezhda 1 Rocket 3.8 00:27:29 10° N 00:33:41 72° W 00:34:36 62° SW
Milstar 3 Cent rocket 3.9 00:35:28 18° SE 00:35:28 18° SE 00:37:49 10° ESE
Resurs 1-4 Rocket 2.2 00:29:19 10° N 00:34:30 57° WNW 00:34:32 57° WNW
Tiangong 0.7 00:38:11 14° NNW 00:38:28 14° NNW 00:40:22 10° NNE
Cosmos 468 4.3 00:34:00 10° NNW 00:39:19 75° WSW 00:39:36 73° SW
CENTAUR R/B 3.8 00:37:29 17° SE 00:39:32 22° ESE 00:43:47 10° ENE
Cosmos 1709 Rocket 4.0 00:41:17 54° SW 00:42:25 63° W 00:48:44 10° N
Cosmos 1346 Rocket 3.1 00:44:42 56° ENE 00:44:42 56° ENE 00:47:53 10° NNE
H-2A R/B 3.4 00:40:01 10° NE 00:44:21 30° E 00:46:59 19° SE
Cosmos 2150 Rocket 4.1 00:43:56 56° W 00:44:22 58° WNW 00:49:43 10° N
Cosmos 614 Rocket 4.0 00:43:17 10° NNW 00:48:19 73° ENE 00:50:54 29° SSE
Cosmos 2227 Rocket 2.1 00:42:47 10° NNW 00:48:25 68° WSW 00:49:40 52° SSW
ATLAS 2AS CENTAUR R/B 4.4 00:49:00 10° N 00:54:54 32° NE 01:00:45 10° ESE
OAO 3 Rocket 4.2 00:55:58 30° SSE 00:55:58 30° SSE 01:00:00 10° E
AQUA 3.7 00:52:03 10° NNE 00:56:45 83° E 00:57:53 52° S
H-2A R/B 4.1 00:56:26 10° NNW 00:58:11 15° NW 00:58:11 15° NW
Cosmos 2360 Rocket 4.0 00:57:25 10° SSE 01:01:52 25° ESE 01:06:18 10° NE
Yuri Rocket 2.7 01:04:30 66° SSW 01:04:44 68° S 01:09:02 10° E
CZ-2C R/B 4.0 01:03:27 10° NE 01:07:52 31° E 01:12:21 10° SSE
ALOS 3.0 01:06:26 10° N 01:10:33 35° WNW 01:10:57 34° W
ASC 2 Rocket 4.4 01:10:00 28° S 01:10:35 29° SSE 01:15:40 10° ESE
USA 290 3.1 01:07:36 10° N 01:10:48 48° ENE 01:12:39 21° SE
Cosmos 1743 3.0 01:12:09 41° NW 01:12:09 41° NW 01:14:48 10° N
Cosmos 2221 3.3 01:12:41 10° NNW 01:16:11 33° W 01:16:11 33° W
Cosmos 2322 Rocket 3.2 01:13:04 15° S 01:17:19 43° ESE 01:22:38 10° NE
USA 281 4.2 01:11:29 10° NE 01:17:39 42° ESE 01:23:46 10° S
Cosmos 1953 Rocket 3.9 01:19:48 41° WSW 01:20:39 47° W 01:24:52 10° N
Cosmos 2333 Rocket 2.9 01:17:57 17° S 01:22:11 51° ESE 01:27:41 10° NNE
Cosmos 1295 Rocket 4.4 01:17:50 19° S 01:22:17 86° E 01:28:25 10° N
Cosmos 2219 Rocket 4.4 01:18:54 10° SE 01:22:51 20° E 01:26:49 10° NE
Cosmos 2184 Rocket 4.0 01:21:12 17° S 01:26:15 87° E 01:32:37 10° N
Hubble Space Telescope 0.6 01:27:10 45° SW 01:28:04 61° S 01:31:52 10° E
Aurora 2 Rocket 3.5 01:28:34 19° SSE 01:28:34 19° SSE 01:30:35 10° ESE
Meteor 1-19 Rocket 4.2 01:24:13 10° NNW 01:29:36 62° W 01:34:11 15° S
Meteor 1-5 Rocket 4.2 01:27:21 20° SSW 01:31:33 80° W 01:37:22 10° N
USA 234 3.7 01:26:22 10° NNE 01:32:35 49° NW 01:36:52 20° WSW
Intelsat 5-2 Rocket 3.5 01:36:14 22° SSE 01:36:14 22° SSE 01:37:48 10° SE
Cosmos 2154 Rocket 4.0 01:30:37 13° S 01:36:14 89° W 01:42:32 10° N
Centaur AC-112 4.3 01:27:52 10° W 01:36:45 26° SW 01:40:06 10° SSE
Meteor 1-28 Rocket 2.9 01:34:07 13° SSE 01:37:05 81° ENE 01:40:27 10° N
Cosmos 2082 3.6 01:32:42 10° NNW 01:38:23 87° WSW 01:44:00 10° SSE
SL-16 R/B 2.5 01:33:38 10° S 01:39:51 78° WSW 01:46:08 10° NNW
SL-16 R/B 2.3 01:38:39 23° SW 01:42:04 59° WNW 01:47:40 10° N
Cosmos 2219 3.3 01:41:21 10° NNW 01:46:49 52° WSW 01:52:14 10° S
ADEOS II 3.8 01:45:08 10° NNW 01:48:17 16° WNW 01:50:12 14° W
ARGOS 3.7 01:42:57 10° NNE 01:48:18 60° E 01:53:38 10° S
ADEOS Rocket 4.0 01:42:46 10° NNE 01:50:20 66° ESE 01:58:02 10° S
Cosmos 1733 3.9 01:50:17 22° W 01:50:31 22° W 01:52:57 10° NNW
Cosmos 921 Rocket 3.5 01:47:44 10° NNW 01:51:49 39° W 01:55:43 11° SSW
Helios 1A Rocket 4.2 01:48:46 10° SE 01:52:01 35° ENE 01:55:17 10° N
Cosmos 1707 2.3 01:48:45 10° N 01:52:02 82° E 01:55:18 10° S
GMS 1 Rocket B 4.4 01:50:51 18° W 01:53:50 79° S 01:58:45 10° E
Cosmos 2263 Rocket 2.8 01:48:58 10° NW 01:53:59 35° WSW 01:58:58 10° SSW
JB-3 4.2 01:54:18 10° SSE 01:57:56 81° E 02:01:39 10° N
Intelsat 5-1 Rocket 4.4 01:39:56 10° W 02:00:29 61° SSW 02:07:12 10° ESE
Cosmos 2074 Rocket 4.4 01:56:57 14° SSW 02:01:56 42° W 02:07:47 10° N
Cosmos 1805 4.0 02:00:22 10° SSE 02:03:39 46° E 02:06:57 10° NNE
SWIFT 3.7 02:04:37 14° SSW 02:06:02 18° S 02:08:32 10° SE
KORONAS-FOTON 4.0 02:04:47 10° NNW 02:08:06 40° W 02:11:24 10° SSW
BREEZE-M DEB (TANK) 2.8 02:05:50 10° NW 02:08:23 75° NE 02:14:36 10° SE
OAO 2 Rocket 4.2 02:03:34 10° WNW 02:08:25 48° N 02:13:21 10° ENE
Uosat 12 SS-18 rocket 3.9 02:05:04 13° SSW 02:08:49 78° WNW 02:13:12 10° NNE
Meteor 1-27 Rocket 4.3 02:03:32 10° NNW 02:09:00 40° W 02:14:27 10° SSW
ARGOS Delta rocket 4.4 02:05:24 10° N 02:10:27 47° WNW 02:15:15 10° SSW
Cosmos 1151 Rocket 3.9 02:06:18 10° N 02:10:31 51° E 02:14:40 10° SSE
IRS-1D 4.2 02:06:17 10° NNE 02:11:06 52° E 02:15:52 10° S
Cosmos 44 Rocket 3.6 02:07:35 14° SW 02:11:18 46° WNW 02:15:49 10° NNE
NOSS 3-2 (A) 3.2 02:07:47 10° SSW 02:12:26 64° ESE 02:17:39 10° NE
Cosmos 2333 4.2 02:10:10 10° SSW 02:15:51 86° WNW 02:21:30 10° NNE
Tiangong 1.0 02:15:08 10° NNW 02:16:28 12° N 02:17:47 10° NNE
USA 276 1.4 02:16:08 14° SW 02:18:20 85° SE 02:20:45 10° NE
CZ-3 Stage 3 4.5 02:13:45 10° WSW 02:21:39 83° SSE 03:00:42 10° E
Cosmos 2227 4.3 02:16:13 10° NNW 02:21:55 87° ENE 02:27:38 10° SSE
H-2A R/B 3.3 02:19:44 10° NNW 02:23:25 21° WNW 02:27:04 10° WSW
PAYLOAD A 4.4 02:18:18 10° N 02:23:29 49° WNW 02:28:31 10° SSW
Cosmos 1939 Rocket 2.7 02:24:56 10° N 02:28:46 78° WNW 02:32:36 10° SSW
Cosmos 405 Rocket 2.3 02:25:34 10° S 02:28:48 86° ESE 02:32:03 10° N
Cosmos 1844 4.2 02:23:40 10° NNW 02:29:21 67° ENE 02:35:02 10° SSE
CENTAUR R/B 3.0 02:24:48 10° WSW 02:29:32 36° NW 02:35:15 10° NNE
BlueWalker 3 2.2 02:27:31 10° NW 02:31:08 68° NE 02:34:43 10° SE
Delta 2 Rocket 3.4 02:31:31 10° WSW 02:35:40 67° SSE 02:39:37 10° ENE
Centaur D-1A AC-31 2.9 02:29:34 10° WSW 02:50:26 60° S 02:54:55 10° E
